Location: Lecco
(45.8566°N, 9.3977°E)
Time: 12:06:18
(UTC+02:00)

Vanguard 2 - Visible Passes

Search period start: 07 August 2020 00:00
Search period end: 17 August 2020 00:00
Orbit: 553 x 2938 km, 32.9° (Epoch: 06 August)

Date Brightness Start Highest point End Pass type
(mag) Time Alt. Az. Time Alt. Az. Time Alt. Az.
07 Aug 10.2 01:17:15 10° WSW 01:23:12 26° SW 01:23:12 26° SW visible
07 Aug 10.6 21:13:51 10° SSW 21:26:27 27° SSE 21:36:04 10° ESE visible
07 Aug 9.6 23:23:15 10° SW 23:36:21 39° S 23:39:00 35° SSE visible
08 Aug 10.3 01:35:05 10° WSW 01:40:26 24° WSW 01:40:26 24° WSW visible
08 Aug 10.4 21:30:23 10° SW 21:44:07 33° SSE 21:54:18 10° ESE visible
08 Aug 9.6 23:40:45 10° WSW 23:54:05 42° S 23:56:03 39° SSE visible
09 Aug 10.4 01:53:00 10° WSW 01:57:28 21° WSW 01:57:28 21° WSW visible
09 Aug 10.3 21:47:17 10° SW 22:01:50 38° SSE 22:11:32 13° ESE visible
09 Aug 9.5 23:58:24 10° WSW 00:11:46 43° S 00:12:56 42° S visible
10 Aug 10.6 02:11:03 10° WSW 02:14:20 18° WSW 02:14:20 18° WSW visible
10 Aug 10.2 22:04:29 10° SW 22:19:32 42° S 22:28:18 17° ESE visible
11 Aug 9.6 00:16:11 10° WSW 00:29:25 42° S 00:29:41 42° S visible
11 Aug 10.8 02:29:16 10° W 02:31:05 14° WSW 02:31:05 14° WSW visible
11 Aug 10.1 22:21:53 10° WSW 22:37:16 45° S 22:44:57 22° ESE visible
12 Aug 9.7 00:34:04 10° WSW 00:46:21 40° SSW 00:46:21 40° SSW visible
12 Aug 10.0 22:39:28 10° WSW 22:54:59 47° S 23:01:33 27° SE visible
13 Aug 10.0 00:52:02 10° W 01:02:55 36° SW 01:02:55 36° SW visible
13 Aug 10.6 20:46:06 10° SW 21:02:03 42° SSE 21:14:45 10° E visible
13 Aug 9.9 22:57:10 10° WSW 23:12:41 47° S 23:18:03 33° SE visible
14 Aug 10.2 01:10:07 10° W 01:19:26 30° SW 01:19:26 30° SW visible
14 Aug 10.5 21:03:23 10° SW 21:19:45 46° S 21:32:37 10° ESE visible
14 Aug 9.9 23:14:58 10° WSW 23:30:21 46° S 23:34:30 37° SSE visible
15 Aug 10.5 01:28:21 10° W 01:35:53 25° WSW 01:35:53 25° WSW visible
15 Aug 10.4 21:20:52 10° WSW 21:37:28 49° S 21:49:34 13° ESE visible
15 Aug 9.9 23:32:53 10° W 23:47:58 44° SSW 23:50:56 39° SSE visible
16 Aug 10.8 01:46:50 10° W 01:52:18 19° WSW 01:52:18 19° WSW visible
16 Aug 10.4 21:38:29 10° WSW 21:55:11 50° S 22:05:58 18° ESE visible
